DELTA 1 DEB

Satellite information

Favourite Embed

Satellite Type and Status

DEBRISIN ORBIT

Key statistics

Satellite DELTA 1 DEB at a glance.

Uptime

18987

Days in orbit

Revolutions

≈ 12.7

Per day

Orbit

SSO

Sun Synchronous Orbit

Inclination

102.4

Latest

Satellite identification and parameters

Extended collection of information and parameters for DELTA 1 DEB.

Object identification

Identified? True

Debris? True

Object name: DELTA 1 DEB

International designator: 1973-086EU

Object number (NORAD): 7183

Object ID (CCSDS): 7183

Country: UNITED STATES OF AMERICA (US)

Current information (Y/N): Y

RCS size: SMALL

Orbital parameters

Period: 113.393 minutes

Inclination: 102.4026 deg

SMA: 7760.386 km

Apoapsis: 1480.302 km

Periapsis: 1284.2 km

RAAN: 313.021 deg

Eccentricy: 0.0126348

Argument of periapsis: 346.007 deg

Mean anomaly: 27.8463 deg

Mean motion: 12.69924213 rev/day

Mean motion (dot): 0.00000636 rev/day2

B* drag term: 0.0033566089 1/REarth

Two-line elements (TLE)

Creation date: Oct. 30, 2025, 10:34 a.m.

Reference frame: TEME

Reference center: EARTH

Epoch: Oct. 30, 2025, 7:15 a.m. UTC

TLE line 0: 0 DELTA 1 DEB

TLE line 1: 1 07183U 73086EU 25303.30227703 .00000636 00000-0 33566-2 0 9990

TLE line 2: 2 07183 102.4026 313.0210 0126348 346.0070 27.8463 12.69924213395488

Live tracking on map

Real-time ground track for satellite DELTA 1 DEB.

In-orbit conjunctions

A list of the most updated potential collisions computed for object DELTA 1 DEB.

Target Orbit TCA Probability of collision Miss distance Type
COSMOS 1034 LEO 2024-08-06 14:17:14 0.000197816 88.0 (m) PAYLOAD

Associated space launch

Meteorological satellite using radiometric imaging

DELTA 1 DEB was lifted into orbit during the mission ‘Delta 0300 | NOAA 3’, on board a Delta 0300 space rocket.

The launch took place on Nov. 6, 1973, 5:02 p.m. from Space Launch Complex 2W.

For more information about the launch, click the button.

Launch to space Delta 0300 | NOAA 3
Delta 0300 | NOAA 3

Agency: N/A

Status: Launch Successful

Launch date: Nov. 6, 1973, 5:02 p.m. UTC

Rocket: Delta 0300

Launch pad: Space Launch Complex 2W

Location: Vandenberg SFB, CA, USA

...

Latest news about this satellite

There are no fresh news available about this satellite. Check back as we update our databases every day.


Newsletter sign-up

Weekly statistics, charts and insights to help you stay on top of the space industry.